DB0OFT-6 Weather Reports


Display with metric or nautical units.
time (UTC)temp
F
wind
direction
speed
MPH
gust
MPH
rain 1hr
in
rain 24hr
in
rain mn
in
humidity
%
barometer
mb
20210517035901 47 180 1.0 0.0 0.00 0.00 0.00 76 958.7
20210517035423 47 180 2.0 0.0 0.00 0.00 0.00 76 958.6
20210517035211 47 180 2.0 0.0 0.00 0.00 0.00 76 958.6
20210517034901 47 180 2.0 0.0 0.00 0.00 0.00 76 958.6
20210517033901 47 157 1.0 0.0 0.00 0.00 0.00 76 958.3
20210517032902 46 157 0.0 0.0 0.00 0.00 0.00 76 958.2
20210517031902 47 157 1.0 0.0 0.00 0.00 0.00 76 958.0
20210517030901 47 202 1.0 0.0 0.00 0.00 0.00 76 958.0
20210517030330 47 180 1.0 0.0 0.00 0.00 0.00 76 957.9
20210517025901 47 180 1.0 0.0 0.00 0.00 0.00 76 957.9
20210517025426 47 180 1.0 0.0 0.00 0.00 0.00 76 958.0
20210517025416 46 157 1.0 0.0 0.00 0.00 0.00 76 958.3
20210517024901 47 180 1.0 0.0 0.00 0.00 0.00 76 958.0
20210517023901 46 157 1.0 0.0 0.00 0.00 0.00 76 958.3
20210517023817 47 180 1.0 0.0 0.00 0.00 0.00 76 958.2
20210517023807 47 180 1.0 0.0 0.00 0.00 0.00 76 958.1
20210517022901 47 180 1.0 0.0 0.00 0.00 0.00 76 958.2
20210517021902 47 180 1.0 0.0 0.00 0.00 0.00 76 958.1
20210517020902 46 157 0.0 0.0 0.00 0.00 0.00 76 958.1
20210517020117 46 157 1.0 0.0 0.00 0.00 0.00 76 958.1
20210517020111 46 157 0.0 0.0 0.00 0.00 0.00 76 958.1
20210517015901 46 157 1.0 0.0 0.00 0.00 0.00 76 958.1
20210517014901 46 157 0.0 0.0 0.00 0.00 0.00 76 958.1
20210517014144 46 157 1.0 0.0 0.00 0.00 0.00 76 957.9
20210517013901 46 157 1.0 0.0 0.00 0.00 0.00 76 957.9
20210517013654 47 180 1.0 0.0 0.00 0.00 0.00 76 958.0
20210517012901 47 180 1.0 0.0 0.00 0.00 0.00 76 958.0
20210517012311 47 157 1.0 0.0 0.00 0.00 0.00 76 957.9
20210517012305 47 157 1.0 0.0 0.00 0.00 0.00 76 958.1
20210517011901 47 157 1.0 0.0 0.00 0.00 0.00 76 957.9
20210517010902 47 157 1.0 0.0 0.00 0.00 0.00 76 958.1
20210517010302 47 112 1.0 0.0 0.00 0.00 0.00 76 958.2
20210517005901 47 112 1.0 0.0 0.00 0.00 0.00 76 958.2
20210517005143 47 157 2.0 0.0 0.00 0.00 0.00 76 958.4
20210517004902 47 157 2.0 0.0 0.00 0.00 0.00 76 958.4
20210517003901 47 157 1.0 0.0 0.00 0.00 0.00 76 958.4
20210517003811 48 202 2.0 0.0 0.00 0.00 0.00 76 958.2
20210517002901 48 202 2.0 0.0 0.00 0.00 0.00 76 958.2
20210517002027 48 157 2.0 0.0 0.00 0.00 0.00 76 958.1
20210517001901 48 157 2.0 0.0 0.00 0.00 0.00 76 958.1
20210517001136 48 180 1.0 0.0 0.00 0.00 0.00 76 958.0
20210517001130 48 135 1.0 0.0 0.00 0.00 0.00 77 958.1
20210517000901 48 157 1.0 0.0 0.00 0.00 0.00 76 957.9
20210516235943 48 180 1.0 0.0 0.00 0.00 0.00 76 958.0
20210516235902 48 180 1.0 0.0 0.00 0.00 0.00 76 958.0
20210516234902 48 135 1.0 0.0 0.00 0.00 0.00 77 958.1
20210516233307 48 135 1.0 0.0 0.00 0.00 0.00 77 958.1
20210516232902 48 135 1.0 0.0 0.00 0.00 0.00 77 958.1
20210516231943 48 157 1.0 0.0 0.00 0.00 0.00 77 958.0
20210516231901 48 157 1.0 0.0 0.00 0.00 0.00 77 958.0
20210516230902 48 180 1.0 0.0 0.00 0.00 0.00 77 958.1
20210516225901 48 202 1.0 0.0 0.00 0.00 0.00 77 958.0
20210516225400 48 135 2.0 0.0 0.00 0.00 0.00 77 957.9
20210516224902 48 135 2.0 0.0 0.00 0.00 0.00 77 957.9
20210516224803 48 180 1.0 0.0 0.00 0.00 0.00 77 957.7
20210516223901 48 180 1.0 0.0 0.00 0.00 0.00 77 957.7
20210516223127 47 157 3.0 0.0 0.00 0.00 0.00 77 957.7
20210516222901 47 157 3.0 0.0 0.00 0.00 0.00 77 957.7
20210516220903 47 157 2.0 0.0 0.00 0.00 0.00 76 957.4
20210516220124 47 180 1.0 0.0 0.00 0.00 0.00 76 957.5
20210516215901 47 180 1.0 0.0 0.00 0.00 0.00 76 957.5
20210516213129 49 202 2.0 0.0 0.00 0.00 0.00 73 957.1
20210516212902 49 202 2.0 0.0 0.00 0.00 0.00 73 957.1
20210516211901 50 157 1.0 0.0 0.00 0.00 0.00 73 957.0
20210516211114 51 180 0.0 0.0 0.00 0.00 0.00 73 956.7
20210516211107 51 180 0.0 0.0 0.00 0.00 0.00 72 956.7
20210516210902 50 202 1.0 0.0 0.00 0.00 0.00 73 956.9
20210516205903 51 180 0.0 0.0 0.00 0.00 0.00 73 956.7
20210516204903 51 180 0.0 0.0 0.00 0.00 0.00 72 956.7
20210516203306 51 180 0.0 0.0 0.00 0.00 0.00 73 956.6
20210516202903 51 157 1.0 0.0 0.00 0.00 0.00 73 956.6
20210516201902 51 180 0.0 0.0 0.00 0.00 0.00 73 956.6
20210516200902 51 180 0.0 0.0 0.00 0.00 0.00 72 956.7
20210516200626 52 157 1.0 0.0 0.00 0.00 0.00 71 956.5
20210516195902 52 157 1.0 0.0 0.00 0.00 0.00 71 956.5
20210516195322 52 157 1.0 0.0 0.00 0.00 0.00 71 956.6
20210516194902 52 157 1.0 0.0 0.00 0.00 0.00 71 956.6
20210516193044 53 180 1.0 0.0 0.00 0.00 0.00 68 956.5
20210516192902 53 180 1.0 0.0 0.00 0.00 0.00 68 956.5
20210516190902 54 180 1.0 0.0 0.00 0.00 0.00 65 956.0
20210516190318 54 180 1.0 0.0 0.00 0.00 0.00 64 955.9
20210516185902 54 180 1.0 0.0 0.00 0.00 0.00 64 955.9
20210516185351 55 157 2.0 0.0 0.00 0.00 0.00 61 955.8
20210516184902 55 180 3.0 0.0 0.00 0.00 0.00 62 955.8
20210516183902 55 157 2.0 0.0 0.00 0.00 0.00 61 955.8
20210516183109 55 180 2.0 0.0 0.00 0.00 0.00 60 955.8
20210516183103 55 180 1.0 0.0 0.00 0.00 0.00 60 955.7
20210516182903 55 180 2.0 0.0 0.00 0.00 0.00 60 955.8
20210516181902 55 180 1.0 0.0 0.00 0.00 0.00 60 955.7
20210516180902 55 157 1.0 0.0 0.00 0.00 0.00 59 955.8
20210516175903 56 180 3.0 0.0 0.00 0.00 0.00 58 955.5
20210516174939 57 135 2.0 0.0 0.00 0.00 0.00 57 955.8
20210516174902 57 135 2.0 0.0 0.00 0.00 0.00 57 955.8
20210516172424 58 180 3.0 0.0 0.00 0.00 0.00 54 955.6
20210516171902 58 180 3.0 0.0 0.00 0.00 0.00 54 955.6
20210516165400 59 112 3.0 0.0 0.00 0.00 0.00 53 955.7
20210516164902 59 112 3.0 0.0 0.00 0.00 0.00 53 955.7
20210516161902 60 202 1.0 0.0 0.00 0.00 0.00 53 955.8
20210516160305 59 157 1.0 0.0 0.00 0.00 0.00 54 955.9
20210516155902 59 157 1.0 0.0 0.00 0.00 0.00 54 955.9
20210516153901 61 180 2.0 0.0 0.00 0.00 0.00 52 956.1
20210516152904 62 157 1.0 0.0 0.00 0.00 0.00 52 956.1
20210516152027 62 180 3.0 0.0 0.00 0.00 0.00 54 955.8
20210516151903 62 180 3.0 0.0 0.00 0.00 0.00 54 955.8
20210516151608 60 157 1.0 0.0 0.00 0.00 0.00 55 955.9
20210516150903 60 157 1.0 0.0 0.00 0.00 0.00 55 955.9
20210516145902 59 157 1.0 0.0 0.00 0.00 0.00 57 955.8
20210516144112 60 135 1.0 0.0 0.00 0.00 0.00 56 956.6
20210516143903 60 135 1.0 0.0 0.00 0.00 0.00 56 956.6
20210516143051 61 157 2.0 0.0 0.00 0.00 0.00 56 957.0
20210516142902 61 157 2.0 0.0 0.00 0.00 0.00 56 957.0
20210516142028 61 202 3.0 0.0 0.00 0.00 0.00 56 956.7
20210516141902 61 202 3.0 0.0 0.00 0.00 0.00 56 956.7
20210516140932 62 135 1.0 0.0 0.00 0.00 0.00 55 956.6
20210516140902 62 135 1.0 0.0 0.00 0.00 0.00 55 956.6
20210516135308 63 180 1.0 0.0 0.00 0.00 0.00 53 956.7
20210516134903 63 180 1.0 0.0 0.00 0.00 0.00 53 956.7
20210516134458 62 180 2.0 0.0 0.00 0.00 0.00 52 957.0
20210516133903 62 202 0.0 0.0 0.00 0.00 0.00 53 956.9
20210516132901 62 180 2.0 0.0 0.00 0.00 0.00 52 957.0
20210516131901 62 202 1.0 0.0 0.00 0.00 0.00 50 957.2
20210516130505 65 180 1.0 0.0 0.00 0.00 0.00 43 956.7
20210516125901 65 180 1.0 0.0 0.00 0.00 0.00 43 956.7
20210516124944 66 157 1.0 0.0 0.00 0.00 0.00 40 956.7
20210516124902 66 157 1.0 0.0 0.00 0.00 0.00 40 956.7
20210516124044 68 157 0.0 0.0 0.00 0.00 0.00 39 956.5
20210516123901 68 157 0.0 0.0 0.00 0.00 0.00 39 956.5
20210516121939 71 0 0.0 0.0 0.00 0.00 0.00 38 956.5
20210516121902 71 0 0.0 0.0 0.00 0.00 0.00 38 956.5
20210516115902 71 157 0.0 0.0 0.00 0.00 0.00 40 956.6
20210516114944 70 225 1.0 0.0 0.00 0.00 0.00 40 956.6
20210516114902 70 225 1.0 0.0 0.00 0.00 0.00 40 956.6
20210516112050 67 67 1.0 0.0 0.00 0.00 0.00 40 957.5
20210516111902 67 135 0.0 0.0 0.00 0.00 0.00 41 957.2
20210516110901 67 67 1.0 0.0 0.00 0.00 0.00 40 957.5
20210516110306 68 67 0.0 0.0 0.00 0.00 0.00 39 957.4
20210516105901 68 67 0.0 0.0 0.00 0.00 0.00 39 957.4
20210516104933 68 247 0.0 0.0 0.00 0.00 0.00 41 957.7
20210516104901 68 247 0.0 0.0 0.00 0.00 0.00 41 957.7
20210516103901 68 112 0.0 0.0 0.00 0.00 0.00 42 957.9
20210516101053 67 180 2.0 0.0 0.00 0.00 0.00 44 958.0
20210516100903 67 180 2.0 0.0 0.00 0.00 0.00 44 958.0
20210516100205 67 157 0.0 0.0 0.00 0.00 0.00 43 958.2
20210516095901 66 157 0.0 0.0 0.00 0.00 0.00 44 958.0
20210516094901 67 157 0.0 0.0 0.00 0.00 0.00 43 958.2
20210516094116 67 135 0.0 0.0 0.00 0.00 0.00 44 958.2
20210516093902 67 135 0.0 0.0 0.00 0.00 0.00 44 958.2
20210516093117 66 180 2.0 0.0 0.00 0.00 0.00 46 958.3
20210516092901 66 180 2.0 0.0 0.00 0.00 0.00 46 958.3
20210516092313 64 180 0.0 0.0 0.00 0.00 0.00 51 958.4
20210516090901 64 180 0.0 0.0 0.00 0.00 0.00 51 958.4
20210516085902 62 112 0.0 0.0 0.00 0.00 0.00 51 958.3
20210516085024 62 157 0.0 0.0 0.00 0.00 0.00 50 958.3
20210516084901 62 157 0.0 0.0 0.00 0.00 0.00 50 958.3
20210516084430 66 180 0.0 0.0 0.00 0.00 0.00 46 958.4
20210516083902 66 180 0.0 0.0 0.00 0.00 0.00 46 958.4
20210516083058 65 67 0.0 0.0 0.00 0.00 0.00 47 958.5
20210516082901 66 157 2.0 0.0 0.00 0.00 0.00 49 958.4
20210516081902 65 67 0.0 0.0 0.00 0.00 0.00 47 958.5
20210516081017 66 157 2.0 0.0 0.00 0.00 0.00 46 958.6
20210516080901 66 157 2.0 0.0 0.00 0.00 0.00 46 958.6
20210516080309 78 157 2.0 0.0 0.00 0.00 0.00 41 958.7
20210516075902 73 180 3.0 0.0 0.00 0.00 0.00 41 958.6
20210516074901 78 157 2.0 0.0 0.00 0.00 0.00 41 958.7
20210516074122 77 135 4.0 0.0 0.00 0.00 0.00 43 958.7
20210516073901 77 135 4.0 0.0 0.00 0.00 0.00 43 958.7
20210516073001 74 157 3.0 0.0 0.00 0.00 0.00 47 958.8
20210516072901 74 157 3.0 0.0 0.00 0.00 0.00 47 958.8
20210516072119 68 180 1.0 0.0 0.00 0.00 0.00 56 958.7
20210516071902 68 180 1.0 0.0 0.00 0.00 0.00 56 958.7
20210516070921 55 135 2.0 0.0 0.00 0.00 0.00 65 958.8
20210516070902 57 180 0.0 0.0 0.00 0.00 0.00 67 958.8
20210516065902 55 135 2.0 0.0 0.00 0.00 0.00 65 958.8
20210516065213 55 202 1.0 0.0 0.00 0.00 0.00 66 958.9
20210516064905 55 202 1.0 0.0 0.00 0.00 0.00 66 958.9
20210516064247 54 157 1.0 0.0 0.00 0.00 0.00 67 958.8
20210516063901 54 157 1.0 0.0 0.00 0.00 0.00 67 958.8
20210516062901 54 135 1.0 0.0 0.00 0.00 0.00 67 958.9
20210516061901 54 157 0.0 0.0 0.00 0.00 0.00 69 958.7
20210516061308 52 157 1.0 0.0 0.00 0.00 0.00 72 958.8
20210516060903 53 180 2.0 0.0 0.00 0.00 0.00 71 959.0
20210516055901 52 157 1.0 0.0 0.00 0.00 0.00 72 958.8
20210516054901 51 180 1.0 0.0 0.00 0.00 0.00 72 958.8
20210516053903 51 180 1.0 0.0 0.00 0.00 0.00 73 958.8
20210516053303 50 157 1.0 0.0 0.00 0.00 0.00 75 958.7
20210516052902 50 157 1.0 0.0 0.00 0.00 0.00 75 958.7
20210516052118 49 180 0.0 0.0 0.00 0.00 0.00 75 958.8
20210516051902 49 180 0.0 0.0 0.00 0.00 0.00 75 958.8
20210516050902 49 157 0.0 0.0 0.00 0.00 0.00 75 958.8
20210516045942 49 202 1.0 0.0 0.00 0.00 0.00 75 958.7
20210516045902 49 202 1.0 0.0 0.00 0.00 0.00 75 958.7
20210516045504 49 202 0.0 0.0 0.00 0.00 0.00 75 958.8
20210516044903 49 202 0.0 0.0 0.00 0.00 0.00 75 958.8
20210516044257 48 157 0.0 0.0 0.00 0.00 0.00 76 958.7
20210516043903 48 157 0.0 0.0 0.00 0.00 0.00 76 958.7
20210516042902 48 157 0.0 0.0 0.00 0.00 0.00 76 958.7
20210516041902 48 180 0.0 0.0 0.00 0.00 0.00 76 958.6
20210516041303 47 180 0.0 0.0 0.00 0.00 0.00 76 958.6
20210516040903 47 180 0.0 0.0 0.00 0.00 0.00 76 958.6